This demonstration page uses our WeatherBlox Daily Observations layout. Learn more.

38.88101, -77.10428

Hourly Observations for August 1, 2018

Temp ( °F °C ) Dew Point ( °F °C ) Humidity (%) Winds ( mph kmh ) Pressure ( in mb ) Visibility ( mi km ) Precip ( " mm )
12:52 am 00:52 Cloudy 77 25 73 22.8 88 88 S 6 9 30.03 1017 10 16.0934 0 0.0254
1:02 am 01:02 Cloudy 77 25 73 22.8 88 88 S 3 6 30.03 1017 10 16.0934 0 0
1:14 am 01:14 Cloudy 77 25 73 22.8 88 88 S 6 9 30.03 1017 10 16.0934 0 0
1:52 am 01:52 Cloudy 77 25 73 22.8 88 88 SSE 9 15 30.01 1016 10 16.0934 0 0.0254
2:06 am 02:06 Cloudy with Heavy Rain 77 25 74 23.3 90 90 SSW 12 19 30.03 1017 2 3.21868 0.06 1.524
2:12 am 02:12 Cloudy with Light Rain 77 25 74 23.3 90 90 S 8 13 30.03 1017 8 12.87472 0.18 4.572
2:41 am 02:41 Cloudy 77 25 73 22.8 88 88 SSE 9 15 30 1016 10 16.0934 0.19 4.826
2:52 am 02:52 Cloudy 77 25 73 22.8 88 88 S 13 20 30.01 1016 10 16.0934 0.19 4.826
3:00 am 03:00 Cloudy 77 25 73 22.8 88 88 WSW 13 20 30.03 1017 10 16.0934 0 0
3:08 am 03:08 Cloudy 77 25 73 22.8 88 88 WSW 13 20 30.03 1017 10 16.0934 0 0
3:16 am 03:16 Cloudy with Light Rain 75 23.9 70 21.1 84 84 W 12 19 30.03 1017 10 16.0934 0 0.0254
3:52 am 03:52 Cloudy with Light Rain 74 23.3 69 20.6 85 85 W 3 6 30.01 1016 8 12.87472 0.05 1.27
4:09 am 04:09 Cloudy with Light Rain 74 23.3 69 20.6 85 85 Calm 30.03 1017 10 16.0934 0 0.0254
4:28 am 04:28 Cloudy 74 23.3 69 20.6 85 85 Calm 30.03 1017 10 16.0934 0.01 0.254
4:52 am 04:52 Cloudy 74 23.3 70 21.1 88 88 S 3 6 30.01 1016 10 16.0934 0.01 0.254
5:26 am 05:26 Cloudy 74 23.3 70 21.1 88 88 SSE 5 7 30.03 1017 10 16.0934 0 0
5:52 am 05:52 Mostly Cloudy 75 23.9 71 21.7 88 88 S 5 7 30.01 1016 10 16.0934 0 0.0254
6:20 am 06:20 Mostly Cloudy 75 23.9 71 21.7 88 88 SSW 5 7 30.03 1017 10 16.0934 0 0
6:52 am 06:52 Mostly Cloudy 76 24.4 73 22.8 91 91 S 7 11 30.03 1017 10 16.0934 0 0
7:52 am 07:52 Partly Cloudy 78 25.6 72 22.2 82 82 SSW 13 20 30.04 1017 10 16.0934 0 0
8:52 am 08:52 Mostly Cloudy 78 25.6 71 21.7 79 79 SSW 14 22 30.04 1017 10 16.0934 0 0
9:29 am 09:29 Mostly Cloudy 80 26.7 72 22.2 76 76 SW 13 20 30.06 1018 10 16.0934 0 0
9:52 am 09:52 Mostly Cloudy 81 27.2 72 22.2 74 74 SSW 16 26 30.06 1018 10 16.0934 0 0
10:52 am 10:52 Mostly Cloudy 82 27.8 72 22.2 72 72 SSW 14 22 30.06 1018 10 16.0934 0 0
11:43 am 11:43 Mostly Cloudy 83 28.3 72 22.2 70 70 SSW 17 28 30.06 1018 10 16.0934 0 0
11:52 am 11:52 Mostly Cloudy 84 28.9 72 22.2 67 67 SSW 14 22 30.06 1018 10 16.0934 0 0
12:52 pm 12:52 Mostly Cloudy 84 28.9 72 22.2 67 67 SSW 17 28 30.04 1017 10 16.0934 0 0
1:52 pm 13:52 Mostly Cloudy 86 30 71 21.7 61 61 SSW 14 22 30.04 1017 10 16.0934 0 0
2:52 pm 14:52 Partly Cloudy 88 31.1 72 22.2 59 59 SSW 20 31 30.02 1017 10 16.0934 0 0
3:52 pm 15:52 Partly Cloudy 88 31.1 71 21.7 57 57 SSW 17 28 30.01 1016 10 16.0934 0 0
4:52 pm 16:52 Partly Cloudy 87 30.6 71 21.7 59 59 S 17 28 30.01 1016 10 16.0934 0 0
5:52 pm 17:52 Mostly Sunny 87 30.6 73 22.8 63 63 S 13 20 30.01 1016 10 16.0934 0 0
6:52 pm 18:52 Mostly Sunny 87 30.6 73 22.8 63 63 S 13 20 30.01 1016 10 16.0934 0 0
7:52 pm 19:52 Mostly Sunny 85 29.4 72 22.2 65 65 S 9 15 30.01 1016 10 16.0934 0 0
8:52 pm 20:52 Partly Cloudy 82 27.8 74 23.3 77 77 S 8 13 30.03 1017 10 16.0934 0 0
9:52 pm 21:52 Partly Cloudy 81 27.2 74 23.3 79 79 S 9 15 30.05 1018 10 16.0934 0 0
10:50 pm 22:50 Mostly Cloudy with Thunderstorms 82 28 73 23 74 74 W 12 19 30.09 1019 10 16.0934 0 0
10:52 pm 22:52 Mostly Cloudy with Thunderstorms 83 28.3 73 22.8 72 72 W 12 19 30.08 1019 10 16.0934 0 0
11:00 pm 23:00 Mostly Cloudy with Thunderstorms 81 27.2 72 22.2 74 74 WNW 7 11 30.09 1019 7 11.26538 0 0
11:07 pm 23:07 Cloudy with Light Rain 81 27.2 72 22.2 74 74 WSW 7 11 30.09 1019 7 11.26538 0 0.0254
11:52 pm 23:52 Mostly Cloudy 81 27.2 73 22.8 77 77 Calm 30.08 1019 9 14.48406 0 0.0254

Powered by AerisWeather